Theta_e
316 315 314 313 312 308 300 290 281 292 291 278 269 272 274 284 282 284 282 279 276 270 270 266 270 272 276 282 280 273 280 273 268 271 277 278 278 275 279 272 271 274 274 273
316 315 314 313 311 307 295 287 285 293 289 277 274 273 282 283 282 282 282 280 281 277 270 268 270 275 281 282 281 275 277 267 263 266 273 277 276 279 279 278 275 271 270 273
316 315 314 312 311 308 296 288 282 285 286 282 279 275 277 279 284 282 283 282 281 277 271 276 269 276 280 282 281 286 283 271 264 263 270 273 272 275 277 276 272 273 275 277
316 315 314 312 311 307 297 289 285 283 278 279 280 281 280 279 277 282 283 281 281 278 269 271 269 275 277 280 283 280 279 267 267 271 273 273 273 273 275 273 275 273 277 278
316 315 314 312 310 305 295 286 285 283 279 283 280 283 278 279 278 281 280 278 281 279 274 275 269 273 275 276 278 277 278 265 273 267 273 274 272 275 276 277 278 278 281 280
315 314 314 312 309 305 294 291 290 289 284 282 279 279 281 280 282 282 283 281 280 279 280 279 278 279 279 279 276 273 274 269 264 260 270 270 267 276 280 278 282 282 278 280
314 314 313 311 307 305 297 292 291 288 282 283 282 282 282 281 282 280 281 282 280 281 281 280 277 275 279 278 277 281 270 268 266 261 263 259 277 277 278 278 281 284 283 281
313 314 312 310 307 307 300 295 294 291 284 284 283 282 282 283 283 281 281 281 282 282 279 272 262 261 265 264 274 277 280 273 265 258 261 268 275 278 277 277 279 282 280 280
312 313 312 311 308 308 302 297 299 295 287 284 286 283 283 281 280 280 279 281 281 280 275 263 260 261 256 260 263 276 278 277 266 257 259 256 272 279 281 282 275 282 279 279
311 312 312 311 309 308 304 297 300 297 288 287 287 284 282 285 283 280 277 279 279 279 268 258 259 260 261 262 259 266 266 270 264 258 259 263 274 277 281 272 276 280 279 279
310 312 312 312 309 308 306 293 297 299 288 285 286 287 284 283 284 280 279 279 275 269 265 264 260 259 264 262 266 268 265 265 261 262 260 261 275 278 276 280 282 279 278 280
309 311 312 311 309 308 305 291 294 293 287 283 285 284 285 285 287 282 279 277 273 277 268 262 261 260 260 259 262 272 265 271 267 268 269 277 279 282 283 282 282 278 279 281
308 310 311 311 309 308 304 293 291 290 284 283 284 283 284 287 285 286 281 278 280 278 276 268 265 265 268 260 263 266 271 274 272 273 275 277 279 281 281 281 281 280 281 281
304 308 310 310 309 307 299 294 296 292 287 281 279 286 282 286 287 286 284 281 280 277 274 267 263 263 272 268 270 269 271 273 269 271 276 277 279 280 281 280 280 280 280 280
303 304 309 310 309 306 298 296 294 295 292 277 277 282 283 285 285 283 282 282 279 274 270 265 267 270 270 268 268 267 272 272 272 272 276 276 277 277 279 280 279 279 279 278
302 304 309 309 307 301 297 285 293 291 289 281 275 281 281 282 282 281 278 278 272 270 271 265 267 274 271 262 260 271 274 274 275 275 274 276 277 276 275 276 276 275 275 276
302 306 308 309 303 301 291 288 291 293 290 279 273 274 280 282 281 278 275 275 268 273 265 263 267 269 267 266 263 273 272 276 275 274 277 275 276 276 277 276 274 271 268 267
302 307 308 304 303 298 288 293 296 294 286 281 272 270 275 281 276 275 277 274 271 269 266 267 265 265 267 267 271 267 267 267 269 274 272 273 270 269 268 268 268 267 267 267
305 307 306 298 288 285 287 297 295 291 287 275 272 271 269 278 276 277 275 276 269 268 267 264 266 262 265 271 271 266 268 272 271 270 264 263 268 269 265 264 263 267 266 263
303 296 286 283 285 297 296 288 285 285 281 276 271 273 270 275 274 271 273 269 266 263 264 267 268 266 272 275 273 267 267 270 266 266 265 262 265 267 266 267 268 269 268 266
287 283 281 287 296 287 285 282 283 283 279 275 270 272 272 274 267 266 272 263 260 261 262 262 257 261 267 267 272 276 269 270 270 264 265 276 273 272 269 264 265 264 265 266
288 286 287 285 285 284 281 279 279 280 277 269 271 271 272 269 272 268 265 261 260 262 258 259 261 269 270 263 261 261 270 269 270 263 263 260 265 267 271 270 268 266 262 260
289 286 282 282 282 277 276 274 275 273 271 268 268 268 271 269 269 262 263 259 260 257 260 263 269 272 267 261 256 257 256 265 264 261 256 255 256 253 261 264 258 265 262 259
284 281 277 279 276 278 272 275 276 271 272 272 270 268 269 266 266 262 261 254 256 255 257 265 275 271 265 259 256 261 262 267 268 267 265 262 261 260 254 254 257 263 263 260
284 279 276 276 267 261 261 267 272 266 277 273 270 269 269 261 262 257 256 255 257 262 267 273 277 268 259 259 259 263 264 266 268 265 266 263 261 259 258 253 256 259 262 261
280 271 274 271 268 271 261 269 272 273 278 272 273 266 267 261 262 259 263 263 264 270 269 275 270 266 259 259 259 261 263 265 263 264 265 264 262 262 262 252 254 258 263 264
277 271 269 265 269 272 268 269 273 281 279 269 270 270 271 264 259 261 263 266 272 272 273 272 263 266 263 258 257 259 260 263 263 261 263 261 258 257 257 261 259 256 258 260
Wind_Speed
27 27 27 26 25 23 8 4 1 1 3 4 1 4 7 4 4 2 2 4 4 5 5 2 2 4 4 2 0 2 1 3 6 8 8 6 3 5 1 2 5 5 6 9
27 29 29 30 29 28 7 5 3 0 3 4 2 4 1 3 5 4 5 3 2 3 5 2 3 4 2 3 4 4 2 3 6 11 6 3 2 3 1 3 3 8 5 9
29 31 31 32 35 28 6 4 4 2 2 1 7 6 4 4 1 4 4 4 4 4 2 1 3 3 1 1 1 2 5 3 8 8 9 2 10 12 12 6 5 5 11 20
28 31 32 36 36 27 5 1 4 3 6 5 4 5 7 6 6 2 4 1 6 6 4 0 4 3 2 1 2 2 3 4 4 11 19 14 16 19 18 8 15 6 13 22
25 30 34 38 36 27 2 6 6 1 1 4 8 5 8 11 4 9 5 5 8 7 7 8 9 6 4 5 1 3 1 4 4 6 4 3 14 17 16 14 14 14 13 23
24 29 35 39 41 27 5 2 2 2 5 4 5 6 7 9 9 4 2 8 6 7 9 6 3 2 2 4 7 4 4 1 4 8 6 10 5 5 4 6 7 5 12 19
23 25 33 37 41 31 5 4 5 4 3 4 6 6 4 7 8 7 3 5 5 2 7 8 7 7 5 3 2 2 4 2 1 6 9 5 6 6 7 8 13 5 9 15
24 25 35 41 45 38 7 5 5 4 4 4 3 7 5 7 4 3 5 2 2 7 4 4 6 7 7 5 2 3 4 2 2 1 2 10 7 2 2 1 6 3 8 13
28 26 32 40 45 40 10 7 3 4 7 11 9 7 4 5 4 3 2 3 2 5 4 5 4 5 4 4 6 2 5 4 5 1 1 5 6 4 0 3 5 3 3 10
24 25 31 37 40 39 15 6 6 5 3 1 8 7 11 7 5 4 3 5 3 3 3 4 4 5 2 3 7 7 3 3 6 4 5 12 13 8 1 4 6 4 2 4
19 20 27 36 42 39 16 3 6 8 4 1 2 4 8 5 4 7 6 5 2 3 3 5 5 4 6 1 4 7 9 9 6 4 3 10 9 1 5 3 2 2 2 3
18 19 23 30 40 39 17 3 3 7 7 3 2 4 4 3 5 8 4 3 6 6 6 0 4 2 2 2 4 1 4 9 7 12 11 4 4 5 3 3 2 1 1 1
12 19 23 31 37 38 19 6 8 6 6 3 2 3 2 4 4 2 7 2 5 4 2 5 3 3 5 4 8 3 6 5 5 1 6 15 15 14 9 4 6 3 3 1
9 11 20 25 36 38 13 8 6 7 6 5 2 1 3 6 1 2 3 7 6 6 3 4 4 4 3 4 3 4 6 7 6 8 14 10 14 10 4 6 6 5 4 2
10 8 22 24 29 31 11 6 2 2 7 5 3 2 3 4 3 7 8 8 6 3 3 3 3 2 3 1 2 7 9 10 8 10 8 3 3 0 3 9 7 6 6 3
10 15 23 26 34 33 10 4 2 3 5 9 4 1 3 4 9 11 8 4 4 4 4 2 2 1 4 3 5 10 11 7 6 5 4 4 2 2 1 5 5 3 4 2
13 17 20 28 39 16 8 9 9 13 5 7 4 3 2 2 3 3 4 3 2 3 3 2 2 0 3 3 7 7 9 13 8 4 5 1 4 5 6 5 5 4 4 1
18 15 25 41 32 15 5 2 27 9 8 5 6 2 2 1 2 2 1 2 2 5 3 2 2 2 1 9 19 4 2 1 4 10 4 3 3 5 3 3 4 3 3 2
21 12 31 18 6 3 6 20 16 7 5 7 4 9 6 3 2 2 2 1 3 2 1 2 4 2 11 16 11 7 13 10 6 8 6 4 4 6 4 4 3 5 4 3
35 16 6 2 3 31 14 6 4 2 4 3 5 2 5 5 2 2 3 2 3 2 4 2 4 10 17 20 14 7 9 12 10 7 2 3 6 9 9 10 5 5 5 6
5 4 3 7 18 4 4 5 5 4 4 3 4 3 7 1 5 4 1 3 1 2 4 4 4 10 11 6 15 16 11 13 14 4 2 11 6 10 9 7 8 7 7 7
9 11 8 3 2 4 6 4 3 4 7 4 6 5 4 2 3 5 1 4 3 6 2 3 6 11 10 4 4 5 12 13 14 7 5 4 6 7 8 8 9 9 6 6
8 5 4 3 2 6 7 9 3 6 8 7 5 6 5 3 3 5 4 5 5 1 1 7 10 6 6 7 3 1 3 8 7 8 3 4 4 2 5 7 4 8 7 4
4 5 8 5 4 5 7 6 6 4 10 14 7 6 4 3 4 4 7 2 2 2 1 10 7 6 6 4 4 7 8 12 11 12 10 7 7 6 3 4 4 8 9 8
5 4 6 4 2 3 1 1 5 3 12 11 7 4 4 2 7 3 6 4 6 7 9 7 5 4 3 4 4 7 9 10 10 8 11 9 8 6 4 3 5 5 7 8
4 5 6 2 5 3 2 3 9 5 12 4 4 6 5 1 7 5 10 8 9 7 7 6 2 2 3 5 4 4 4 5 4 7 7 7 8 8 6 4 3 5 8 10
4 1 1 5 4 6 4 4 5 12 9 4 5 7 7 6 3 3 7 9 7 6 5 3 4 4 5 4 4 5 5 7 6 5 7 6 6 6 5 6 7 5 4 4
Wind_Direction
199 189 181 168 160 150 136 136 152 217 106 63 318 163 183 175 140 137 97 112 114 155 164 177 260 242 224 10 137 117 109 176 277 263 279 257 246 203 127 256 311 275 264 268
199 190 180 168 162 159 129 150 131 348 124 163 231 310 132 172 133 171 162 144 125 144 161 27 211 255 275 284 196 163 205 331 320 346 353 15 311 223 230 301 261 237 273 278
198 191 181 173 164 168 110 143 131 340 59 265 145 145 212 164 185 138 134 132 124 108 88 172 246 247 260 309 238 263 173 162 180 207 240 15 296 292 285 269 260 273 259 289
209 192 181 172 169 167 106 194 206 192 189 235 176 141 148 131 168 169 170 171 207 156 152 359 237 257 291 193 286 91 114 239 198 249 263 272 269 273 284 256 251 260 288 304
223 203 185 171 168 153 123 143 154 78 136 125 126 174 210 160 197 151 212 211 185 163 172 187 205 157 216 199 224 146 80 271 315 287 282 114 282 274 261 260 266 265 287 308
222 197 192 181 161 148 162 166 81 164 153 136 124 209 185 189 145 238 167 176 126 194 230 174 151 163 156 177 156 182 163 117 15 272 323 312 335 243 254 267 242 253 324 313
215 204 184 176 163 173 129 191 122 140 166 168 202 161 132 161 194 152 147 142 137 167 109 96 52 46 34 55 289 238 126 86 113 278 330 14 248 302 245 245 280 252 275 309
220 205 189 175 175 176 132 163 148 137 141 165 131 138 121 96 98 84 134 102 79 142 87 62 26 346 12 329 326 237 216 154 280 177 247 294 303 218 348 35 285 222 299 323
219 206 193 185 181 182 159 162 105 106 126 216 132 135 162 144 140 108 59 53 68 76 79 74 136 237 211 296 358 283 205 158 123 68 137 231 242 182 303 163 279 202 321 333
213 209 198 187 184 183 168 152 152 119 138 214 141 164 172 152 127 122 134 167 126 21 102 97 156 249 206 233 167 182 184 185 210 197 253 283 250 261 244 77 267 3 27 325
212 201 202 192 182 182 179 113 167 155 123 101 322 153 139 127 153 148 158 105 297 52 120 139 202 158 215 95 206 177 172 157 205 170 208 284 188 359 195 186 23 344 355 333
215 200 198 189 184 181 164 125 88 90 85 97 62 59 10 41 117 131 182 142 157 163 95 86 98 166 90 167 264 155 248 191 180 188 216 252 216 239 223 144 142 266 236 302
207 207 190 186 186 181 172 143 140 88 101 55 109 133 341 30 25 321 124 278 162 171 136 150 160 169 129 179 241 225 243 174 226 111 257 233 241 254 248 216 185 155 188 249
205 228 193 190 185 177 136 149 157 96 102 127 154 168 53 325 313 64 67 117 80 98 74 108 134 141 163 223 236 202 209 142 192 263 278 269 261 240 189 171 148 151 148 200
205 255 203 184 175 158 106 80 61 21 134 127 108 123 20 21 58 79 86 111 109 118 77 84 207 132 103 325 353 240 187 192 175 224 225 164 247 299 187 167 177 170 152 182
220 243 205 182 161 142 119 61 335 174 118 105 136 42 39 51 78 72 65 64 70 87 119 167 295 319 113 132 245 250 210 210 190 223 195 166 110 181 57 120 141 138 151 155
246 232 198 163 151 153 158 176 155 152 96 95 108 76 53 51 67 46 48 42 71 82 113 76 160 104 88 148 241 224 212 213 218 208 131 211 193 208 165 135 119 100 93 72
254 202 178 149 149 98 37 82 127 120 87 81 113 83 157 231 103 96 354 66 25 11 117 112 139 17 144 254 242 233 204 123 236 207 198 154 107 77 85 81 110 110 171 206
193 157 142 126 58 95 117 113 93 63 89 118 118 140 174 152 100 119 65 71 68 315 93 248 100 219 227 229 231 195 195 191 219 163 126 114 160 180 166 144 172 168 200 197
120 107 75 115 160 127 109 31 80 86 60 54 91 134 130 136 144 94 110 35 125 192 246 123 211 254 262 254 224 194 185 178 139 104 203 206 232 194 190 207 186 189 174 170
63 107 91 135 130 88 72 123 143 128 130 111 123 160 132 222 119 146 316 154 127 153 245 165 258 268 247 223 228 215 176 172 196 183 225 198 191 172 183 205 214 190 183 189
132 107 91 97 135 99 120 122 116 181 155 137 136 149 128 138 110 99 260 126 72 225 139 93 259 250 252 250 233 231 185 171 190 181 190 203 187 179 184 187 191 194 176 164
90 90 126 161 135 125 146 156 201 157 161 159 159 116 122 116 74 74 98 102 201 31 92 234 239 263 265 252 186 225 239 158 141 159 152 140 158 171 166 187 213 161 166 175
107 134 135 170 157 213 180 173 167 131 117 139 114 102 130 149 91 121 105 246 89 70 266 237 246 247 271 278 196 134 176 190 180 181 174 169 175 190 198 225 163 153 175 182
122 134 142 153 141 45 284 201 96 54 142 125 108 90 113 108 98 71 116 59 241 216 227 228 239 254 306 268 216 176 169 191 189 165 170 176 172 161 178 201 175 142 125 156
82 69 104 122 76 89 340 128 111 153 147 113 72 124 86 75 126 121 208 136 222 237 223 238 279 278 249 242 221 205 151 178 180 166 164 156 159 176 176 158 163 165 163 174
81 14 64 126 107 145 185 125 145 158 138 137 122 111 178 99 64 252 193 201 222 211 244 217 203 215 241 226 192 186 165 156 166 154 152 143 131 116 112 165 207 184 181 163